User: anonymous   Login
Location: Beang
(6.6177°N, 10.9863°W)
Time: 03:09:26
(UTC+00:00)
Language:

Cosmos 1238 Rocket - Orbit

View from above orbital plane
View from above orbital plane
View from above satellite
View from above satellite

Ground track
Ground track

The orbit data is extracted from the following two-line orbital elements,

1 12139U 81003B   20221.70711377 +.00001574 +00000-0 +71514-4 0  9997
2 12139 082.9471 275.1990 0463517 063.3810 301.4097 14.57299359014079
Epoch (UTC): 08 August 2020 16:58:14
Eccentricity: 0.0463517
inclination: 82.9471°
perigee height: 374 km
apogee height: 1030 km
right ascension of ascending node: 275.1990°
argument of perigee: 63.3810°
revolutions per day: 14.57299359
mean anomaly at epoch: 301.4097°
orbit number at epoch: 1407

The dashed part of the orbit path shows where the satellite is in the earth's shadow,  

DLR